Regional Weather Roundup
Issued by NWS New Orleans/Baton Rouge, LA

Home | Current Version | Previous Version | Text Only | Print | Product List | Glossary Off
Versions: 1 2 3 4 5 6 7 8 9 10 11 12 13 14 15 16 17 18 19 20 21 22 23 24 25 26 27 28 29 30 31 32 33 34 35 36 37 38 39 40 41 42 43 44 45 46 47 48 49 50

483
ASUS44 KLIX 270105
RWRLIX
NEW ORLEANS REGIONAL WEATHER ROUNDUP
NATIONAL WEATHER SERVICE NEW ORLEANS LA
700 PM CST WED NOV 26 2014

NOTE: "FAIR" INDICATES FEW OR NO CLOUDS BELOW 12,000 FEET WITH NO
      SIGNIFICANT WEATHER AND/OR OBSTRUCTIONS TO VISIBILITY.
      SKY/WX - SKY CONDITION AND SIGNIFICANT WEATHER.
      TMP - AIR TEMPERATURE.     DP    - DEWPOINT TEMPERATURE.
      RH  - RELATIVE HUMIDITY.   PRES  - PRESSURE.
      HI  - HEAT INDEX.          WCI   - WIND CHILL INDEX.

*  THESE STATIONS ARE NOT NWS OR FAA STATIONS AND ARE NOT UNDER
   NWS QUALITY CONTROL.

LAZ038-040-048-061>063-065>067-069-270200-
SOUTHEAST LOUISIANA

CITY           SKY/WX    TMP DP  RH WIND       PRES   REMARKS
N.O. AUDUBON     N/A     57  44  62 MISG        N/A
N.O. INTL ARPT CLEAR     59  42  53 SW9       30.21R
N.O. LAKEFRONT CLEAR     61  43  51 SW13      30.21R
N.O. DOWNTOWN*   N/A     61  39  44 S9        30.22R
SLIDELL        CLEAR     61  43  51 VRB7      30.19R
BATON ROUGE    CLEAR     58  39  49 SW9       30.20R
BOOTHVILLE     CLEAR     60  46  59 W9        30.24S
BELLE CHASSE   CLEAR     52  41  66 SW7       30.22R
BOGALUSA*        N/A     54  42  63 SW6       30.18R
NEW ROADS*       N/A     56  41  56 SW5       30.20S
GONZALES*        N/A     58  46  63 SW5       30.21R
HAMMOND*       CLEAR     61  39  44 W8        30.21R
HOUMA*         CLEAR     56  46  70 SW3       30.23S
PORT FOURCHON* CLEAR     61  50  67 SW9G15    30.28S

$$

MSZ070-080>082-270200-
SOUTHERN MISSISSIPPI

CITY           SKY/WX    TMP DP  RH WIND       PRES   REMARKS
MCCOMB         CLEAR     57  38  48 SW6       30.16R
GULFPORT       CLEAR     58  44  60 SW8       30.17S
BILOXI         CLEAR     57  45  64 SW14      30.17F
PASCAGOULA     CLEAR     57  44  62 SW7       30.18F

$$

COASTAL OBSERVATIONS
LAKE AND NEARSHORE STATIONS

STATION/POSITION TIME  TEMP    WIND        PRES    WAVE
                       AIR SEA DIR/SP/G            HT/PER
                 (UTC) (F)     (DEG/KT/KT) (MB)    (FT/S)
PASCAGOULA       0100   60     230/ 16/ 20 1021.7
WAVELAND YACHT   0100   59     230/ 10/ 15 1021.2
GRAND ISLE       0100   60 60  250/  7/ 12 1024.3
SOUTHWEST PASS   0100   64                 1024.5
NEW CANAL        0100   61 55  220/  6/  9 1023.1
SHELL BEACH      0100   57 53  210/  9/ 13 1022.8

OFFSHORE STATIONS

STATION/POSITION TIME  TEMP    WIND        PRES    WAVE
                       AIR SEA DIR/SP/G            HT/PER
                 (UTC) (F)     (DEG/KT/KT) (MB)    (FT/S)
64 S DAUPHIN ISL 0042   64 70  250/ 17/ 21 1024.5    2/ 3

$$




USA.gov is the U.S. government's official web portal to all federal, state and local government web resources and services.